CAPE
0 0 0 0 0 0 0 0 0 0 0 0 0 0 0 3 0 0 0 0 0 0 0 0 90 79 1 0 1 1 1 2 1 0 0 0 0 0 0 0 0 0 0 0
1 0 0 0 0 0 0 0 0 0 0 0 0 0 0 0 0 0 0 0 0 0 1 1 0 50 23 11 1 1 1 1 1 0 0 0 0 0 0 0 0 0 0 0
1 0 0 0 0 0 0 0 0 0 0 0 0 0 0 0 0 0 0 0 0 0 0 1 0 13 9 0 0 0 0 0 0 0 0 0 0 0 0 0 0 0 0 0
2 0 0 0 0 0 0 0 0 0 0 0 0 0 0 0 0 0 0 0 0 0 0 0 0 0 15 7 0 0 0 0 0 0 0 0 0 0 0 0 0 0 0 0
0 0 0 0 0 0 0 0 0 0 0 0 0 0 0 0 0 0 0 0 0 0 0 0 0 0 16 26 1 0 0 0 0 0 0 0 0 0 0 0 0 0 0 0
0 0 0 0 0 0 0 0 0 0 0 0 0 0 0 0 0 0 0 0 0 0 0 0 0 0 0 0 0 0 0 0 0 0 0 0 0 0 0 0 0 0 0 0
0 0 0 0 1 0 1 0 0 0 0 0 0 0 0 0 0 0 0 0 0 0 0 0 0 0 0 0 0 0 0 0 0 0 0 0 0 0 0 0 0 0 0 0
0 0 0 0 1 0 0 0 0 0 0 0 0 0 0 0 0 0 0 0 0 0 0 0 0 0 0 0 0 0 0 0 0 0 0 0 0 0 0 0 0 0 0 0
0 0 0 0 0 0 0 0 0 0 0 0 0 0 0 0 0 0 0 0 0 0 0 0 0 0 0 2 0 0 0 0 0 0 0 0 0 0 0 0 0 0 0 0
0 0 0 0 0 0 0 0 0 0 0 0 0 8 0 0 0 0 0 0 0 0 0 0 0 0 0 6 4 0 0 0 0 0 0 0 0 0 0 0 0 0 0 0
0 0 0 1 0 0 0 0 0 0 0 0 0 0 0 0 0 0 0 0 0 0 0 0 0 0 0 5 11 0 0 0 0 0 0 0 0 0 0 0 0 0 0 0
0 0 0 0 0 0 0 0 2 0 0 0 0 0 2 0 0 0 0 0 0 0 0 0 0 0 0 1 1 1 0 0 0 0 0 0 0 0 0 0 0 0 0 0
0 0 0 0 0 1 0 0 0 3 1 0 0 0 0 0 0 0 0 0 0 0 0 0 0 0 0 0 0 0 0 0 0 0 0 0 0 0 0 0 0 0 0 0
2 0 0 0 0 0 4 0 0 0 0 0 0 0 0 0 0 0 0 0 0 0 0 0 0 0 0 0 1 0 0 0 0 0 0 0 0 0 0 0 0 0 0 0
1 0 0 0 0 0 1 0 0 0 0 0 0 0 0 0 0 0 0 0 0 0 0 0 0 0 0 0 0 0 0 0 0 0 0 0 0 0 1 1 1 1 0 0
0 0 1 0 1 0 0 0 2 0 0 1 0 1 0 2 2 0 0 0 0 0 0 0 0 0 0 0 0 0 0 0 0 0 0 0 0 0 0 0 0 0 0 1
1 1 0 0 0 0 0 0 0 0 0 1 0 0 0 0 0 1 0 0 0 0 0 0 0 0 0 0 0 0 0 0 0 0 0 0 0 0 0 0 0 0 0 1
0 1 1 0 0 0 0 0 0 0 0 0 1 0 0 1 1 1 0 0 0 0 0 0 0 0 0 0 0 0 0 0 0 0 0 0 0 0 0 0 0 0 0 0
0 1 0 0 0 0 0 0 0 0 0 0 1 0 0 1 1 0 0 0 0 0 0 0 0 0 0 0 0 0 0 0 0 0 0 0 0 0 0 0 0 0 2 2
0 0 0 0 0 0 0 0 0 0 0 0 0 0 0 3 0 0 0 0 0 0 0 0 0 0 0 0 0 0 0 0 0 0 0 0 0 0 0 0 0 0 0 0
0 0 0 0 0 0 0 0 0 0 0 0 0 0 0 0 0 0 0 0 0 0 0 0 0 0 0 0 0 0 0 0 0 0 0 0 0 0 0 0 0 0 0 0
0 0 0 0 0 0 0 0 0 0 0 0 0 0 0 0 0 0 0 0 0 0 0 0 0 0 0 0 0 0 0 0 0 0 0 0 0 0 0 0 1 0 1 0
0 0 0 0 0 0 0 0 0 0 0 0 0 0 0 0 0 0 0 0 0 0 0 0 0 0 0 0 0 0 0 0 0 0 0 0 0 0 0 0 0 0 1 0
0 0 0 0 0 0 0 0 0 0 0 0 0 0 0 0 0 0 0 0 0 0 0 0 0 0 0 0 0 0 0 0 0 0 0 0 0 0 0 0 2 0 0 0
0 0 0 0 0 0 0 0 0 0 0 0 0 0 0 0 0 0 0 0 0 0 0 0 0 0 0 0 0 0 0 0 0 0 0 0 1 0 1 1 1 1 1 2
0 0 0 0 0 0 0 0 0 0 0 0 0 0 0 0 0 0 0 0 0 0 0 0 0 0 0 0 0 0 0 0 0 0 0 0 0 1 1 1 0 0 0 0
CIN
0 0 0 0 0 0 0 0 0 0 0 0 0 0 0 -3 0 0 0 0 0 0 0 0 -310 -240 -44 0 -1 -3 0 0 0 0 0 0 0 0 0 0 0 0 0 0
0 0 0 0 0 0 0 0 0 0 0 0 0 0 0 0 0 -3 0 0 0 0 -140 -34 0 -310 -269 -289 0 0 0 0 0 0 0 0 0 0 0 0 0 0 0 0
0 0 0 0 0 0 0 0 0 0 0 0 0 0 0 0 0 0 0 0 0 0 0 -41 0 -389 -360 -78 0 0 0 0 0 0 0 0 0 0 0 0 0 0 0 0
0 0 0 0 0 0 0 0 0 0 0 0 0 0 0 0 0 0 0 0 0 0 0 0 0 0 -379 -360 0 0 0 0 0 0 0 0 0 0 0 0 0 0 0 0
0 0 0 0 0 0 0 0 0 0 0 0 0 0 0 0 0 0 0 0 0 0 0 0 0 0 -392 -407 -110 0 0 0 0 0 0 0 0 0 0 0 0 0 0 0
0 0 0 0 0 0 0 0 0 0 0 -1 0 0 0 0 0 0 0 0 0 0 0 0 0 0 0 0 0 0 0 0 0 0 0 0 0 0 0 0 0 0 0 0
0 0 0 0 0 0 0 0 0 0 0 0 0 0 0 0 0 0 0 0 0 0 0 0 0 0 0 0 0 0 0 0 0 0 0 0 0 0 0 0 0 0 0 0
0 0 0 0 0 0 0 0 0 0 0 0 0 0 0 0 0 0 0 0 0 0 0 0 0 0 0 0 0 0 0 0 0 0 0 0 0 0 0 0 0 0 0 0
0 0 0 0 0 0 0 0 0 0 0 -1 0 0 0 0 0 0 0 0 0 0 0 0 0 0 0 -429 0 0 0 0 0 0 0 0 0 0 0 0 0 0 0 0
0 0 0 0 0 0 0 0 0 0 0 0 0 -16 0 0 0 0 0 0 0 0 0 0 0 0 0 -406 -270 0 0 0 0 0 0 0 0 0 0 0 0 0 0 0
0 0 0 0 0 0 0 0 0 0 0 0 0 0 0 0 0 0 0 0 0 0 0 0 0 0 0 -369 -396 -1 0 0 0 0 0 0 0 0 0 0 0 0 0 0
0 0 0 0 0 0 0 0 -1 0 0 0 0 0 0 0 0 0 0 0 0 0 0 0 0 0 0 -166 -407 -484 0 0 0 0 0 0 0 0 0 0 0 0 0 0
0 0 0 0 0 0 0 0 0 -6 -3 -1 0 0 0 0 0 0 0 0 0 0 0 0 0 0 0 0 0 0 0 0 0 0 0 0 0 0 0 0 0 0 0 0
0 0 0 0 0 0 -3 0 0 0 0 0 0 0 0 0 0 0 0 0 0 0 0 0 0 0 0 0 0 0 0 0 0 0 0 0 0 0 0 0 0 0 0 0
0 0 0 0 0 0 0 0 0 0 0 0 0 0 0 0 0 0 0 0 0 0 0 0 0 0 0 0 0 0 0 0 0 0 0 0 0 0 0 0 0 0 0 0
0 0 0 0 0 0 0 0 0 0 0 0 0 0 0 0 0 0 0 0 0 0 0 0 0 0 0 0 0 0 0 0 0 0 0 0 0 0 0 0 0 0 0 0
0 0 0 0 0 0 0 0 0 0 0 0 0 0 0 0 0 0 0 0 0 0 0 0 0 0 0 0 0 0 0 0 0 0 0 0 0 0 0 0 0 0 0 0
0 0 0 0 0 0 0 0 0 0 0 0 0 0 0 0 0 0 0 0 0 0 0 0 0 0 0 0 0 0 0 0 0 0 0 0 0 0 0 0 0 0 0 0
0 0 0 0 0 0 0 0 0 0 0 0 0 0 0 0 -6 0 0 0 0 0 0 0 0 0 0 0 0 0 0 0 0 0 0 0 0 0 0 0 0 0 0 0
0 0 0 0 0 0 0 0 0 0 0 0 0 0 0 -4 0 0 0 0 0 0 0 0 0 0 0 0 0 0 0 0 0 0 0 0 0 0 0 0 0 0 0 0
0 0 0 0 0 0 0 0 0 0 0 0 0 0 0 0 0 0 0 0 0 0 0 0 0 0 0 0 0 0 0 0 0 0 0 0 0 0 0 0 0 0 0 0
0 0 0 0 0 0 0 0 0 0 0 0 0 0 0 0 0 0 0 0 0 0 0 0 0 0 0 0 0 0 0 0 0 0 0 0 0 0 0 0 0 0 0 0
0 0 0 0 0 0 0 0 0 0 0 0 0 0 0 0 0 0 0 0 0 0 0 0 0 0 0 0 0 0 0 0 0 0 0 0 0 0 0 0 0 0 0 0
0 0 0 0 0 0 0 0 0 0 0 0 0 0 0 0 0 0 0 0 0 0 0 0 0 0 0 0 0 0 0 0 0 0 0 0 0 0 0 0 0 0 0 0
0 0 0 0 0 0 0 0 0 0 0 0 0 0 0 0 0 0 0 0 0 0 0 0 0 0 0 0 0 0 0 0 0 0 0 0 0 0 0 0 0 0 0 0
0 0 0 0 0 0 0 0 0 0 0 0 0 0 0 0 0 0 0 0 0 0 0 0 0 0 0 0 0 0 0 0 0 0 0 0 0 0 0 0 0 0 0 0
Wind_Speed
21 25 28 27 25 29 31 35 40 36 34 41 50 48 42 42 46 44 43 42 40 38 34 33 27 23 23 17 16 15 16 18 19 21 21 24 26 24 22 20 14 11 9 6
22 29 26 24 23 29 35 40 47 41 39 42 51 59 50 47 48 46 45 44 44 40 32 35 30 25 22 20 17 16 16 17 19 20 23 27 25 27 26 23 18 14 11 8
22 22 19 16 23 28 32 39 41 42 40 46 52 65 57 52 50 47 49 49 43 43 38 37 33 30 25 24 19 18 17 18 19 20 22 25 25 27 26 23 16 13 13 12
22 20 18 21 23 23 38 32 36 39 40 52 37 72 59 50 53 52 50 51 52 45 38 35 39 35 30 24 24 19 18 18 19 19 21 25 28 29 29 25 24 22 18 14
22 23 22 13 16 18 32 27 26 26 39 45 51 57 56 52 57 54 51 49 52 49 40 37 35 38 36 28 25 22 20 19 19 20 21 24 29 31 28 25 24 21 17 16
17 27 24 19 21 17 25 24 21 25 33 50 49 49 62 56 56 51 47 48 48 46 45 43 37 37 37 32 28 24 22 20 19 20 21 22 25 29 27 25 23 21 21 20
29 23 22 22 24 19 18 18 30 35 36 50 39 46 60 51 49 50 47 48 46 47 42 46 43 40 39 32 26 24 22 21 19 21 22 23 25 27 27 27 26 23 23 21
35 40 22 18 18 20 14 16 22 34 38 45 35 45 48 46 46 49 44 41 43 43 41 40 45 43 46 38 30 24 25 24 20 21 23 23 26 30 30 28 27 23 22 21
36 27 28 21 14 7 13 14 13 26 24 30 25 31 27 28 29 29 32 32 31 34 38 35 45 49 49 45 37 28 24 27 24 22 21 23 26 28 29 28 25 26 25 23
29 25 25 17 10 9 22 24 24 28 22 22 22 23 21 23 30 30 25 26 26 28 31 34 33 38 41 46 45 38 31 26 27 26 26 24 25 28 30 28 27 26 27 25
20 17 17 7 14 20 24 24 23 23 24 19 13 21 17 20 25 20 20 20 20 22 24 26 28 33 33 43 42 41 37 32 29 32 30 31 29 29 29 30 29 28 27 25
17 20 12 11 13 18 20 21 22 21 21 21 23 22 18 13 10 11 11 11 13 15 17 18 21 24 29 40 39 38 37 33 30 29 30 28 29 31 29 30 31 29 28 26
19 5 10 11 13 17 18 19 20 18 15 20 13 17 9 4 4 6 7 9 11 14 16 14 14 18 21 28 33 34 34 34 31 28 28 32 28 27 29 30 31 29 28 27
15 12 11 14 15 13 12 15 18 19 21 18 17 20 10 7 7 8 12 14 15 16 16 16 12 14 17 18 24 27 29 31 31 29 27 29 30 31 29 30 29 30 28 28
20 18 18 16 18 19 21 18 19 18 24 25 16 11 9 11 12 13 15 15 16 15 17 17 15 15 16 15 19 22 23 25 28 31 30 31 31 32 32 32 32 32 31 29
18 19 18 14 15 20 22 23 14 14 16 14 7 11 13 13 13 15 18 20 19 19 18 16 15 14 16 17 18 20 21 22 23 26 29 31 32 31 32 32 32 32 33 32
21 23 17 16 17 16 16 21 21 20 15 11 9 12 13 14 14 17 17 19 19 18 18 16 16 18 18 19 20 20 21 21 22 24 26 28 30 32 34 34 33 33 33 32
22 22 19 18 16 12 12 12 11 20 19 17 13 14 16 15 16 19 19 19 18 18 18 18 17 18 19 20 20 22 23 24 25 27 28 29 31 30 31 32 33 33 33 32
21 20 19 16 13 11 17 15 10 12 15 8 12 13 13 13 16 19 19 20 19 19 19 18 18 18 19 19 21 22 22 22 24 26 29 31 32 32 32 33 33 32 32 32
18 19 17 17 15 15 16 18 16 14 12 14 21 16 7 14 16 16 18 19 19 21 21 21 22 21 21 23 22 22 23 24 26 28 30 31 31 31 33 35 34 31 30 32
13 18 17 17 15 15 18 18 12 13 11 13 15 14 19 19 18 16 18 19 20 21 22 23 24 24 25 25 25 25 26 27 29 29 30 31 31 32 32 32 32 33 32 30
14 11 17 17 16 16 19 15 13 11 12 14 16 16 17 18 18 20 21 22 22 23 23 24 25 26 27 28 28 29 30 31 32 31 31 31 31 32 32 32 32 30 28 28
15 13 10 16 16 16 16 14 13 13 14 16 17 18 18 18 18 20 21 22 23 24 25 26 26 27 29 30 31 32 33 34 34 34 34 34 34 33 32 31 30 29 27 26
12 12 12 11 13 15 16 14 14 14 15 17 18 18 18 19 20 21 22 23 23 24 25 25 26 28 30 31 32 33 35 36 36 37 37 37 37 37 34 32 31 29 28 27
11 14 13 11 12 12 9 14 17 17 17 17 19 19 20 21 22 22 23 24 24 24 25 25 27 29 30 32 34 34 36 37 38 37 39 39 39 38 37 35 34 33 31 29
10 12 14 14 15 14 13 13 14 16 17 20 22 22 22 23 24 23 24 23 23 24 24 25 27 29 31 33 34 35 36 37 38 39 40 40 40 39 37 36 36 31 31 32
Wind_Direction
316 302 295 293 291 289 293 287 283 285 281 278 269 270 270 267 261 260 256 255 254 255 256 252 248 244 245 241 240 231 232 234 236 238 239 245 248 251 254 253 246 243 237 222
316 303 304 303 300 291 287 286 281 285 284 279 272 266 269 266 261 259 256 254 253 254 254 248 248 244 239 238 234 229 225 227 228 238 241 248 248 252 253 252 249 244 234 229
312 315 329 308 304 296 292 287 287 284 287 279 274 265 265 263 260 260 256 254 255 252 250 248 246 245 244 242 228 228 225 232 229 238 243 248 250 253 253 252 241 227 236 235
321 323 304 306 302 299 296 295 289 287 285 275 272 260 260 262 256 254 255 251 249 251 248 246 246 246 245 242 246 235 230 229 229 231 237 238 245 247 250 250 250 248 243 236
326 317 316 293 286 300 298 304 296 291 283 281 268 262 258 258 254 252 253 254 250 247 247 243 244 246 249 249 247 244 240 234 228 224 228 237 246 249 252 251 249 247 239 238
313 312 313 309 312 287 308 299 301 298 287 274 270 260 256 253 252 253 255 256 251 248 246 245 243 247 249 249 248 246 238 227 221 220 222 226 239 247 248 247 247 246 249 249
323 300 313 313 312 298 282 294 294 289 282 277 276 264 254 256 254 253 257 258 254 248 247 242 242 243 246 247 245 245 241 233 219 215 222 226 238 244 245 246 248 248 251 251
304 300 332 325 303 309 258 267 289 290 287 280 273 261 255 253 254 257 254 260 256 250 248 241 240 242 244 247 246 244 245 243 229 215 219 233 243 248 249 248 249 248 250 249
311 336 338 333 329 293 304 269 275 296 283 276 272 265 257 251 257 261 256 260 261 255 251 248 245 246 244 245 246 242 243 249 245 221 226 237 245 245 249 249 247 253 256 257
339 343 352 5 15 191 196 191 183 188 227 242 223 242 242 246 250 258 257 259 266 263 260 256 252 249 246 246 247 248 249 247 249 250 249 244 241 247 251 251 249 253 256 256
357 8 11 197 184 161 176 174 174 171 187 189 215 201 251 255 242 254 259 265 278 276 268 265 264 254 250 246 247 248 251 252 254 254 253 254 251 250 249 253 254 254 257 256
27 16 250 220 172 151 151 152 166 171 180 192 206 215 263 270 272 268 273 289 299 302 292 285 277 266 257 246 248 249 250 251 254 257 254 253 254 254 251 253 255 256 257 258
19 149 241 191 141 124 167 169 175 179 184 191 206 228 263 283 337 316 335 329 328 328 321 312 296 276 272 256 253 252 252 252 255 256 255 257 256 256 255 257 258 258 259 260
272 231 245 253 246 207 172 189 178 186 205 215 203 194 266 314 329 321 336 345 341 342 335 317 308 302 296 280 262 259 258 257 256 257 257 259 259 259 260 261 262 261 260 261
296 272 289 275 37 356 327 278 244 181 215 259 294 248 299 302 313 316 332 335 340 330 325 316 328 315 310 304 275 271 268 266 265 261 261 263 264 264 265 265 266 266 266 264
288 287 289 319 327 352 357 355 322 308 269 290 294 287 301 306 312 328 340 350 343 331 312 318 336 326 311 305 292 284 282 279 276 271 271 271 269 267 267 268 268 268 269 269
298 308 277 271 290 319 332 351 360 11 344 305 304 292 314 330 325 329 331 342 344 328 325 324 327 315 311 308 301 298 294 290 285 283 284 282 278 275 272 273 273 273 273 274
293 302 303 274 306 288 288 303 305 9 1 355 4 21 20 9 9 6 347 346 340 334 335 334 326 321 314 307 309 305 301 295 292 287 288 291 288 283 281 280 279 279 280 279
307 307 306 307 312 329 7 315 282 326 354 324 353 12 1 357 5 359 352 352 343 340 339 337 336 331 329 326 319 319 315 311 305 302 298 290 291 287 286 283 282 283 284 284
318 325 325 312 296 301 339 320 288 299 331 333 23 5 265 164 355 341 340 348 351 355 352 352 354 351 347 339 333 331 329 324 312 306 299 297 298 295 289 288 286 287 288 284
332 312 323 325 305 315 326 302 330 316 312 307 349 341 13 14 4 333 336 348 348 351 353 356 359 357 353 348 347 347 342 337 328 319 312 306 301 298 297 295 294 291 288 287
85 347 311 321 314 305 319 333 349 358 352 329 327 325 335 351 352 358 359 357 353 350 351 353 356 355 356 355 353 350 347 339 336 333 329 324 318 310 305 301 297 296 295 293
78 101 85 318 317 322 323 345 348 346 339 331 335 339 339 340 340 344 344 347 352 354 355 355 355 353 356 354 353 347 344 341 338 338 335 331 326 322 318 312 307 303 300 297
97 110 111 124 332 317 325 339 343 345 343 335 339 346 351 348 341 340 341 341 344 349 350 350 350 350 349 348 348 347 343 342 341 339 336 333 329 324 320 315 311 306 300 296
84 92 100 122 146 139 1 330 325 327 335 338 336 334 338 337 335 336 335 339 341 346 349 350 349 348 347 349 348 348 346 345 343 342 340 336 333 328 322 318 311 305 301 297
100 101 89 89 104 98 104 127 355 338 331 325 323 324 329 329 328 332 333 339 343 347 352 351 350 349 347 349 350 350 349 349 346 342 342 341 337 333 328 320 314 311 305 299